When you browse on this site, cookies collect data to enhance your experience and personalize the content and advertising you see.
Visit our Privacy Policy to learn more. By continuing to use the site, you agree to this use of cookies and data.
EN

Hourly Weather Partenit

Today, 12 August, Wednesday

Time Temperature Precipitation Wind Pressure Humidity
00:00 +21°C° 0 mm 3 mps 741 mmHg 67%
01:00 +21°C° 0 mm 3 mps 740 mmHg 66%
02:00 +21°C° 0 mm 3 mps 740 mmHg 66%
03:00 +20°C° 0 mm 3 mps 740 mmHg 66%
04:00 +20°C° 0 mm 2 mps 740 mmHg 66%
05:00 +20°C° 0 mm 2 mps 740 mmHg 66%
06:00 +23°C° 0 mm 2 mps 740 mmHg 60%
07:00 +26°C° 0 mm 1 mps 740 mmHg 53%
08:00 +28°C° 0 mm 1 mps 740 mmHg 47%
09:00 +29°C° 0 mm 1 mps 741 mmHg 44%
10:00 +30°C° 0 mm 2 mps 741 mmHg 41%
11:00 +31°C° 0 mm 2 mps 741 mmHg 38%
12:00 +30°C° 0 mm 2 mps 741 mmHg 41%
13:00 +30°C° 0 mm 2 mps 741 mmHg 43%
14:00 +29°C° 0 mm 3 mps 741 mmHg 46%
15:00 +29°C° 0 mm 2 mps 741 mmHg 47%
16:00 +29°C° 0 mm 2 mps 740 mmHg 47%
17:00 +28°C° 0 mm 1 mps 740 mmHg 48%
18:00 +27°C° 0 mm 1 mps 740 mmHg 55%
19:00 +25°C° 0 mm 2 mps 741 mmHg 62%
20:00 +23°C° 0 mm 2 mps 741 mmHg 69%
21:00 +21°C° 0 mm 2 mps 741 mmHg 72%
22:00 +21°C° 0 mm 2 mps 741 mmHg 75%
23:00 +20°C° 0 mm 3 mps 741 mmHg 77%

Tomorrow, 13 August, Thursday

Time Temperature Precipitation Wind Pressure Humidity
00:00 +20°C° 0 mm 3 mps 741 mmHg 76%
01:00 +20°C° 0 mm 3 mps 741 mmHg 75%
02:00 +20°C° 0 mm 3 mps 741 mmHg 75%
03:00 +19°C° 0 mm 3 mps 741 mmHg 79%
04:00 +19°C° 0 mm 3 mps 741 mmHg 83%
05:00 +18°C° 0 mm 3 mps 741 mmHg 87%
06:00 +20°C° 0 mm 3 mps 741 mmHg 78%
07:00 +22°C° 0 mm 3 mps 741 mmHg 68%
08:00 +25°C° 0 mm 3 mps 741 mmHg 59%
09:00 +26°C° 0 mm 3 mps 742 mmHg 55%
10:00 +27°C° 0 mm 3 mps 742 mmHg 51%
11:00 +28°C° 0 mm 3 mps 742 mmHg 46%
12:00 +28°C° 0 mm 3 mps 742 mmHg 44%
13:00 +28°C° 0 mm 3 mps 742 mmHg 41%
14:00 +29°C° 0 mm 3 mps 742 mmHg 38%
15:00 +28°C° 0.1 mm 3 mps 742 mmHg 39%
16:00 +27°C° 0.1 mm 3 mps 742 mmHg 39%
17:00 +26°C° 0.1 mm 3 mps 742 mmHg 40%
18:00 +24°C° 0 mm 3 mps 742 mmHg 49%
19:00 +21°C° 0 mm 3 mps 742 mmHg 58%
20:00 +18°C° 0 mm 3 mps 742 mmHg 67%
21:00 +18°C° 0 mm 3 mps 742 mmHg 67%
22:00 +17°C° 0 mm 3 mps 742 mmHg 66%
23:00 +17°C° 0 mm 3 mps 742 mmHg 66%

Day after tomorrow, 14 August, Friday

Time Temperature Precipitation Wind Pressure Humidity
00:00 +17°C° 0 mm 3 mps 742 mmHg 65%
01:00 +16°C° 0 mm 3 mps 742 mmHg 64%
02:00 +16°C° 0 mm 3 mps 742 mmHg 63%
03:00 +16°C° 0 mm 3 mps 742 mmHg 63%
04:00 +16°C° 0 mm 3 mps 742 mmHg 64%
05:00 +16°C° 0 mm 3 mps 742 mmHg 64%
06:00 +18°C° 0 mm 2 mps 742 mmHg 57%
07:00 +21°C° 0 mm 2 mps 742 mmHg 50%
08:00 +24°C° 0 mm 2 mps 742 mmHg 42%
09:00 +25°C° 0 mm 2 mps 742 mmHg 40%
10:00 +26°C° 0 mm 2 mps 742 mmHg 37%
11:00 +27°C° 0 mm 2 mps 743 mmHg 35%
12:00 +27°C° 0 mm 3 mps 742 mmHg 35%
13:00 +27°C° 0 mm 4 mps 742 mmHg 36%
14:00 +27°C° 0 mm 4 mps 742 mmHg 37%
15:00 +27°C° 0 mm 4 mps 742 mmHg 39%
16:00 +26°C° 0 mm 4 mps 742 mmHg 40%
17:00 +26°C° 0 mm 4 mps 742 mmHg 42%
18:00 +22°C° 0 mm 3 mps 742 mmHg 51%
19:00 +20°C° 0 mm 3 mps 742 mmHg 60%
20:00 +18°C° 0 mm 3 mps 742 mmHg 70%
21:00 +18°C° 0 mm 3 mps 742 mmHg 72%
22:00 +17°C° 0 mm 3 mps 742 mmHg 74%
23:00 +17°C° 0 mm 2 mps 742 mmHg 76%

15 August, Saturday

Time Temperature Precipitation Wind Pressure Humidity
00:00 +17°C° 0 mm 2 mps 742 mmHg 76%
01:00 +16°C° 0 mm 2 mps 742 mmHg 76%
02:00 +16°C° 0 mm 2 mps 742 mmHg 76%
03:00 +16°C° 0 mm 2 mps 742 mmHg 74%
04:00 +16°C° 0 mm 2 mps 742 mmHg 73%
05:00 +16°C° 0 mm 3 mps 742 mmHg 71%
06:00 +18°C° 0 mm 3 mps 742 mmHg 62%
07:00 +20°C° 0 mm 3 mps 742 mmHg 53%
08:00 +24°C° 0 mm 3 mps 743 mmHg 43%
09:00 +24°C° 0 mm 3 mps 743 mmHg 43%
10:00 +25°C° 0 mm 3 mps 743 mmHg 42%
11:00 +26°C° 0 mm 3 mps 743 mmHg 41%
12:00 +26°C° 0 mm 3 mps 743 mmHg 42%
13:00 +26°C° 0 mm 2 mps 743 mmHg 43%
14:00 +26°C° 0 mm 2 mps 743 mmHg 43%
15:00 +25°C° 0 mm 3 mps 743 mmHg 45%
16:00 +25°C° 0 mm 3 mps 743 mmHg 47%
17:00 +24°C° 0 mm 3 mps 742 mmHg 49%
18:00 +21°C° 0 mm 3 mps 742 mmHg 56%
19:00 +19°C° 0 mm 4 mps 743 mmHg 62%
20:00 +17°C° 0 mm 4 mps 743 mmHg 68%
21:00 +17°C° 0 mm 4 mps 742 mmHg 67%
22:00 +15°C° 0 mm 4 mps 742 mmHg 66%
23:00 +14°C° 0 mm 4 mps 742 mmHg 65%

16 August, Sunday

Time Temperature Precipitation Wind Pressure Humidity
00:00 +14°C° 0 mm 4 mps 742 mmHg 64%
01:00 +14°C° 0 mm 4 mps 742 mmHg 63%
02:00 +14°C° 0 mm 4 mps 742 mmHg 62%
03:00 +14°C° 0 mm 4 mps 742 mmHg 64%
04:00 +14°C° 0 mm 4 mps 742 mmHg 65%
05:00 +13°C° 0 mm 4 mps 741 mmHg 66%
06:00 +17°C° 0 mm 4 mps 742 mmHg 61%
07:00 +19°C° 0 mm 4 mps 742 mmHg 56%
08:00 +21°C° 0 mm 4 mps 742 mmHg 50%
09:00 +22°C° 0 mm 4 mps 742 mmHg 49%
10:00 +23°C° 0 mm 4 mps 742 mmHg 48%
11:00 +25°C° 0 mm 5 mps 743 mmHg 47%
12:00 +23°C° 0 mm 4 mps 743 mmHg 50%
13:00 +23°C° 0 mm 4 mps 743 mmHg 53%
14:00 +23°C° 0 mm 4 mps 743 mmHg 56%
15:00 +22°C° 0 mm 4 mps 742 mmHg 58%
16:00 +22°C° 0 mm 4 mps 742 mmHg 60%
17:00 +21°C° 0 mm 5 mps 742 mmHg 63%
18:00 +19°C° 0 mm 5 mps 742 mmHg 64%
19:00 +18°C° 0 mm 4 mps 742 mmHg 66%
20:00 +15°C° 0 mm 4 mps 742 mmHg 68%
21:00 +15°C° 0 mm 4 mps 742 mmHg 64%
22:00 +14°C° 0 mm 4 mps 742 mmHg 60%
23:00 +14°C° 0 mm 4 mps 742 mmHg 55%

17 August, Monday

Time Temperature Precipitation Wind Pressure Humidity
00:00 +14°C° 0 mm 4 mps 742 mmHg 58%
01:00 +14°C° 0 mm 4 mps 742 mmHg 60%
02:00 +14°C° 0 mm 4 mps 742 mmHg 63%
03:00 +13°C° 0 mm 4 mps 742 mmHg 66%
04:00 +13°C° 0 mm 4 mps 742 mmHg 69%
05:00 +13°C° 0 mm 4 mps 742 mmHg 72%
06:00 +16°C° 0 mm 5 mps 743 mmHg 65%
07:00 +19°C° 0 mm 5 mps 743 mmHg 59%
08:00 +21°C° 0 mm 5 mps 743 mmHg 52%
09:00 +22°C° 0 mm 5 mps 743 mmHg 46%
10:00 +23°C° 0 mm 5 mps 743 mmHg 40%
11:00 +26°C° 0 mm 5 mps 744 mmHg 34%
12:00 +26°C° 0 mm 5 mps 744 mmHg 35%
13:00 +26°C° 0 mm 5 mps 743 mmHg 35%
14:00 +26°C° 0 mm 5 mps 743 mmHg 35%
15:00 +25°C° 0 mm 5 mps 743 mmHg 36%
16:00 +23°C° 0 mm 6 mps 743 mmHg 37%
17:00 +23°C° 0 mm 6 mps 743 mmHg 38%
18:00 +21°C° 0 mm 5 mps 743 mmHg 42%
19:00 +17°C° 0 mm 5 mps 743 mmHg 47%
20:00 +15°C° 0 mm 4 mps 743 mmHg 51%
21:00 +15°C° 0 mm 4 mps 743 mmHg 50%
22:00 +15°C° 0 mm 4 mps 743 mmHg 48%
23:00 +15°C° 0 mm 4 mps 743 mmHg 47%
Show more